Hourly Data Report for October 18, 2015

All times are specified in Local Standard Time (LST). Add 1 hour to adjust for Daylight Saving Time where and when it is observed.

OTTAWA INTL A
ONTARIO

45°19'00.000" N
75°40'00.000" W
114.90 m
6106001
71628
YOW

Download Data

Hourly Data (October 2015)
Hourly Data Report for October 18, 2015
Temp Definition
°C
Dew Point Temp Definition
°C
Rel Hum Definition
%
Wind Dir Definition
10's deg

Wind Spd Definition
km/h
Visibility Definition
km
Stn Press Definition
kPa
Hmdx Definition


Wind Chill Definition


Weather Definition


TIME
00:00 Legend Double Dagger -1.9 -5.4 77 29 6 24.1 100.97   -4 LegendNANA
01:00 Legend Double Dagger -4.7 -6.0 91 24 9 24.1 100.98   -9 Clear
02:00 Legend Double Dagger -4.6 -5.9 91 27 10 24.1 100.97   -9 LegendNANA
03:00 Legend Double Dagger -4.9 -5.6 95 28 7 24.1 100.98   -8 LegendNANA
04:00 Legend Double Dagger -4.1 -4.8 95 25 9 24.1 101.03   -8 Clear
05:00 Legend Double Dagger -5.1 -5.8 95 36 1 24.1 101.07   -6 LegendNANA
06:00 Legend Double Dagger -4.3 -5.1 94 28 9 24.1 101.11   -8 LegendNANA
07:00 Legend Double Dagger -3.5 -4.2 95 24 8 24.1 101.18   -7 Mostly Cloudy
08:00 Legend Double Dagger -2.0 -3.1 92 28 5 24.1 101.24   -4 LegendNANA
09:00 Legend Double Dagger -0.6 -2.2 89 28 9 24.1 101.27   -4 LegendNANA
10:00 Legend Double Dagger 1.4 -3.5 70 30 16 24.1 101.30     Mostly Cloudy
11:00 Legend Double Dagger 1.3 -5.4 61 33 21 24.1 101.33     LegendNANA
12:00 Legend Double Dagger 1.4 -6.5 56 33 20 24.1 101.31     Snow Showers
13:00 Legend Double Dagger 2.3 -7.1 50 32 15 24.1 101.30     Mostly Cloudy
14:00 Legend Double Dagger 1.7 -6.4 55 34 11 24.1 101.30     LegendNANA
15:00 Legend Double Dagger 1.9 -8.5 46 31 21 24.1 101.33     LegendNANA
16:00 Legend Double Dagger 1.5 -8.4 48 34 17 24.1 101.37     Mostly Cloudy
17:00 Legend Double Dagger 0.5 -9.6 47 32 17 24.1 101.41     LegendNANA
18:00 Legend Double Dagger -0.3 -9.5 50 34 16 24.1 101.47   -5 LegendNANA
19:00 Legend Double Dagger -0.8 -9.7 51 34 15 24.1 101.50   -5 Mainly Clear
20:00 Legend Double Dagger -2.1 -9.8 56 36 9 24.1 101.53   -6 LegendNANA
21:00 Legend Double Dagger -2.4 -10.0 56 35 4 24.1 101.52   -4 LegendNANA
22:00 Legend Double Dagger -3.0 -8.5 66 24 5 24.1 101.55   -5 Clear
23:00 Legend Double Dagger -4.1 -7.9 75 25 8 24.1 101.56   -8 LegendNANA

Notes on Data Quality.

Legend

  • E = Estimated
  • M = Missing
  • NA = Not Available
  • ‡ = Partner data that is not subject to review by the National Climate Archives
Date modified: